Location: Malcolm X Square
(37.7810°N, 122.4297°W)
Time: 13:02:01
(UTC+00:00)

Daily predictions for brighter satellites

Satellite Brightness Start Highest point End
(mag) Time Altitude Azimuth Time Altitude Azimuth Time Altitude Azimuth
DELTA 2 R/B (1) 4.0 12:11:18 60° ENE 12:11:18 60° ENE 12:15:59 10° E
PAYLOAD A 4.5 12:12:31 10° NNE 12:16:32 56° NNE 12:16:32 56° NNE
OAO 3 Rocket 4.2 12:24:10 39° SE 12:24:10 39° SE 12:28:00 10° E
ATLAS 2AS CENTAUR R/B 4.3 12:21:32 10° NNW 12:28:12 32° NE 12:34:23 10° ESE
CZ-2C R/B 2.4 12:23:30 10° NNE 12:28:12 76° NNE 12:28:12 76° NNE
Sich 1 3.7 12:28:17 10° N 12:32:32 53° E 12:36:47 10° SSE
ADEOS 4.0 12:32:00 10° N 12:36:01 48° NNW 12:36:01 48° NNW
Cosmos 1818 4.2 12:37:47 25° S 12:40:45 53° ESE 12:46:03 10° NE
Cosmos 1238 Rocket 3.2 12:36:29 10° N 12:41:32 74° E 12:45:35 10° SSE
Atlas Centaur 2 3.3 12:42:14 39° SW 12:44:25 50° S 12:52:25 10° ESE
STARLINK-1129 4.2 12:45:05 45° NE 12:45:05 45° NE 12:48:21 10° ESE
ERBS 4.0 12:46:48 27° NNE 12:46:48 27° NNE 12:48:33 10° NE
OAO 2 Rocket 4.1 12:46:23 38° SSW 12:47:22 43° SSE 12:52:19 10° E
Cosmos 1400 Rocket 3.4 12:50:31 47° N 12:50:31 47° N 12:53:35 10° N
Cosmos 2173 Rocket 3.8 12:43:29 10° NNW 12:49:39 69° W 12:55:42 10° S
CZ-4B R/B 4.1 12:46:18 10° NNE 12:50:49 84° ESE 12:53:11 28° S
Cosmos 1315 Rocket 4.3 12:47:22 10° SSE 12:50:58 36° E 12:54:34 10° NNE
STARLINK-1134 3.7 12:52:50 54° NNE 12:52:59 55° NE 12:56:31 10° ESE
STARLINK-1135 3.6 12:55:55 57° NNE 12:56:12 59° NE 12:59:45 10° ESE
STARLINK-1141 3.5 12:59:04 57° N 12:59:29 64° NE 13:03:03 10° ESE
STARLINK-1140 3.4 13:02:13 56° NNW 13:02:46 69° NE 13:06:22 10° SE
USA 215 4.2 12:57:28 10° NNE 13:03:02 31° NNW 13:05:10 26° WNW
Cosmos 1606 4.0 12:59:35 10° SSE 13:03:08 40° E 13:06:42 10° NNE
Cosmos 1484 Rocket 2.8 13:01:01 10° NNE 13:05:01 81° E 13:09:02 10° S
STARLINK-1156 3.3 13:05:23 54° NNW 13:06:04 74° NE 13:09:40 10° SE
Cosmos 1459 Rocket 4.1 13:00:45 10° NNW 13:06:46 50° W 13:12:50 10° SSW
STARLINK-1148 3.2 13:08:33 51° NW 13:09:22 80° NE 13:12:59 10° SE
SJ-12 4.4 13:08:25 10° NNE 13:12:32 61° E 13:16:37 10° S
STARLINK-1158 3.2 13:11:44 47° NW 13:12:41 86° NE 13:16:18 10° SE
STARLINK-1162 3.1 13:12:20 51° NW 13:13:09 90° NE 13:16:41 10° SE
Cosmos 1328 Rocket 3.5 13:08:47 10° S 13:13:13 89° E 13:17:40 10° N
STARLINK-1157 3.0 13:15:13 47° NW 13:16:09 84° SW 13:19:42 10° SE
Cosmos 1850 Rocket 4.3 13:15:46 27° SW 13:18:12 46° WNW 13:23:16 10° N
STARLINK-1159 3.0 13:18:14 43° WNW 13:19:17 78° SW 13:22:49 10° SE
Cosmos 2100 Rocket 4.5 13:14:52 10° NNW 13:20:20 34° W 13:25:46 10° SSW
STARLINK-1149 3.5 13:21:46 34° SSW 13:21:46 34° SSW 13:23:54 10° SSE
BREEZE-M DEB (TANK) 3.5 13:19:04 28° W 13:21:24 46° NW 13:24:14 10° NE
Shenzhou-11 Module 2.0 13:22:10 50° S 13:22:10 50° S 13:24:31 10° SE
SL-8 R/B 4.4 13:20:22 29° WNW 13:22:06 40° NNW 13:26:39 10° NE
STARLINK-1171 3.1 13:21:17 39° WNW 13:22:28 73° SW 13:26:00 10° SE
H-2A R/B 2.9 13:20:16 10° N 13:24:35 45° WNW 13:28:34 12° SW
Cosmos 192 4.2 13:20:38 10° NNW 13:25:30 65° WSW 13:30:21 10° S
STARLINK-1155 3.1 13:24:15 35° WNW 13:25:33 67° SW 13:29:03 10° SE
COSMOS 2406 3.5 13:21:14 10° SSW 13:26:51 70° ESE 13:32:29 10° NNE
STARLINK-1166 3.2 13:27:18 32° WNW 13:28:43 62° SW 13:32:12 10° SE
Cosmos 1340 2.5 13:26:03 10° NNW 13:29:49 73° W 13:33:33 10° S
Cosmos 489 Rocket 4.4 13:25:03 10° NNW 13:31:13 65° WSW 13:37:19 10° S
FENGYUN 3A 3.6 13:26:07 10° NNE 13:31:35 85° WNW 13:37:00 10° SSW
STARLINK-1165 3.3 13:30:19 30° WNW 13:31:51 57° SW 13:35:20 10° SSE
ISS -1.4 13:31:24 12° NNW 13:31:59 13° NNW 13:33:32 10° N
USA 267 3.2 13:27:26 10° SE 13:33:59 80° SW 13:40:33 10° NW
Cosmos 468 Rocket 4.0 13:29:08 10° NNW 13:34:18 56° WSW 13:39:23 10° S
STARLINK-1169 3.4 13:33:21 27° WNW 13:34:58 52° SW 13:38:26 10° SSE
Meteor 1-31 Rocket 3.8 13:33:13 10° NNW 13:36:24 25° WNW 13:37:04 24° W
STARLINK-1178 3.5 13:36:22 25° WNW 13:38:06 48° SW 13:41:32 10° SSE
Cosmos 2123 Rocket 4.4 13:32:38 10° SSW 13:38:31 41° WNW 13:44:25 10° N
Cosmos 1862 4.3 13:35:33 10° NW 13:38:45 24° W 13:41:57 10° SW
Cosmos 1725 Rocket 4.1 13:32:44 10° NNW 13:38:47 52° W 13:44:52 10° SSW
CZ-4B R/B 3.5 13:36:31 10° NNW 13:39:36 27° WNW 13:41:12 20° WSW
Cosmos 1346 Rocket 2.6 13:36:03 10° NNW 13:39:56 72° W 13:43:48 10° S
Meteor 2-20 Rocket 4.4 13:34:26 10° S 13:40:30 89° E 13:46:37 10° N
Cosmos 1633 Rocket 3.4 13:36:25 10° NNW 13:40:34 42° W 13:44:44 10° SSW
STARLINK-1120 3.6 13:39:20 23° WNW 13:41:11 44° SW 13:44:35 10° SSE
Cosmos 1515 Rocket 3.5 13:39:16 10° SSW 13:43:40 70° W 13:48:04 10° N
STARLINK-1131 3.7 13:42:22 21° WNW 13:44:20 41° SW 13:47:42 10° SSE
NOSS 3-4 (A) 4.1 13:38:10 10° NNW 13:45:21 78° ENE 13:53:12 10° SE
NOSS 3-4 (C) 4.1 13:38:17 10° NNW 13:45:28 77° ENE 13:53:18 10° SE
STARLINK-67 3.4 13:43:57 10° SSW 13:46:28 46° SE 13:48:58 10° ENE
STARLINK-1190 3.8 13:45:27 19° WNW 13:47:32 38° SW 13:50:51 10° SSE
PSLV R/B 4.0 13:44:44 10° N 13:48:26 46° WNW 13:52:11 10° SSW
Cosmos 1814 Rocket 4.2 13:43:42 10° NNW 13:48:58 76° ENE 13:54:16 10° SSE
Cosmos 1666 Rocket 4.5 13:48:07 10° NNW 13:51:43 25° W 13:55:17 10° SW
COSMO-SKYMED 1 2.7 13:47:38 10° S 13:51:51 51° W 13:56:05 10° NNW
Cosmos 1933 Rocket 3.5 13:47:59 10° N 13:52:20 88° W 13:56:40 10° S
Cosmos 1763 Rocket 3.8 13:48:16 10° NNW 13:53:20 46° WSW 13:58:19 10° S
Cosmos 841 Rocket 3.5 13:48:16 10° NNW 13:53:34 87° WSW 13:58:49 10° SSE
ALOS 2.6 13:50:04 10° N 13:54:29 44° WNW 13:58:54 10° SW
Okean O Rocket 1.8 13:52:06 10° NNE 13:56:27 78° ESE 14:00:47 10° S
DELTA 2 R/B (1) 3.6 13:52:04 14° WNW 13:56:59 79° SSW 14:02:32 10° ESE
STARLINK-1153 4.4 13:56:38 15° WSW 13:57:41 18° SW 13:59:44 10° S
STARLINK-1180 4.5 13:56:49 15° WSW 13:57:54 18° SW 13:59:57 10° S
STARLINK-1174 4.5 13:57:16 15° WSW 13:58:20 17° SW 14:00:21 10° S
STARLINK-1139 4.5 13:57:29 15° WSW 13:58:34 17° SW 14:00:35 10° S
STARLINK-1133 4.5 13:57:43 14° WSW 13:58:47 17° SW 14:00:47 10° S
STARLINK-1151 4.5 13:57:56 14° WSW 13:59:01 17° SW 14:01:01 10° S
Meteor 1-26 Rocket 4.3 13:53:55 10° S 13:59:41 81° W 14:05:39 10° N
METEOR-M 4.4 13:57:46 10° N 14:02:49 44° WNW 14:07:51 10° SW
MOS 1-B 4.4 13:57:55 10° N 14:03:37 58° WNW 14:09:16 10° SSW
STARLINK-1214 2.7 14:02:51 10° SW 14:04:57 52° SE 14:07:02 10° ENE
STARLINK-1235 2.6 14:03:17 10° SW 14:05:20 51° SE 14:07:19 10° ENE
Cosmos 2208 Rocket 4.0 14:00:23 10° NNW 14:05:31 61° WSW 14:10:35 10° S
Cosmos 1782 2.8 14:01:50 10° S 14:05:51 90° ESE 14:09:54 10° N
CZ-2C R/B 4.3 14:04:53 10° NW 14:05:59 11° WNW 14:07:04 10° WNW
OAO 3 Rocket 3.5 14:01:58 10° W 14:06:41 64° S 14:11:33 10° E
PAYLOAD B 4.3 14:05:06 10° N 14:10:34 60° WNW 14:15:58 10° SSW
STARLINK-1204 2.8 14:08:55 10° SW 14:11:32 67° SE 14:14:08 10° NE
Cosmos 2228 Rocket 3.1 14:07:21 10° SSW 14:11:42 58° W 14:16:06 10° N
STARLINK-1203 2.6 14:09:46 10° SW 14:12:16 67° SE 14:14:42 10° NE
GPS 2-05 Rocket1 4.3 14:13:07 10° SW 14:13:50 11° SSW 14:14:34 10° S
Cosmos 1151 Rocket 4.5 14:14:00 10° WSW 14:16:57 18° WNW 14:19:55 10° NNW
Cosmos 540 Rocket 3.5 14:11:59 10° NNW 14:17:05 60° WSW 14:22:09 10° S
ATLAS 2AS CENTAUR R/B 2.9 14:12:21 10° NW 14:19:33 57° WSW 14:26:07 10° SSE
COSMOS 2455 2.9 14:14:22 10° NNW 14:20:23 72° WSW 14:26:21 10° SSE
